Regional Weather Roundup
Issued by NWS

Home | Current Version | Previous Version | Graphics & Text | Print | Product List | Glossary On
Versions: 1 2 3 4 5 6 7 8 9 10 11 12 13 14 15 16 17 18 19 20 21 22 23 24 25 26 27 28 29 30 31 32 33 34 35 36 37 38 39 40 41 42 43 44 45 46 47 48 49 50
000
ASUS45 KTFX 060210
RWRMT
MONTANA REGIONAL WEATHER ROUNDUP
NATIONAL WEATHER SERVICE GREAT FALLS MT
700 PM MST FRI FEB 05 2016

NOTE: "FAIR" INDICATES FEW OR NO CLOUDS BELOW 12000 FEET WITH NO
SIGNIFICANT WEATHER AND/OR OBSTRUCTIONS TO VISIBILITY.

MTZ001>007-043-060300-
WEST OF THE DIVIDE

CITY           SKY/WX    TMP DP  RH WIND       PRES   REMARKS
KALISPELL      MOCLDY    35  30  82 SW8       30.20F WCI  29
MISSOULA       MOCLDY    31  25  78 N5        30.27F
BUTTE          CLOUDY    33  19  56 W5        30.26S
MULLAN PASS    CLOUDY    29  26  89 VRB5      30.18F
ANACONDA         N/A     37  21  52 S12G20    30.25S WCI  30
DEER LODGE       N/A     28  21  74 W7        30.26S WCI  21
HAMILTON         N/A     41  27  56 S6        30.26F
LIBBY            N/A     34  28  80 CALM      30.20F
$$

MTZ008-052>055-060300-
SOUTHWEST MONTANA

CITY           SKY/WX    TMP DP  RH WIND       PRES   REMARKS
BOZEMAN        CLOUDY    30  19  63 CALM      30.25F
DILLON         CLOUDY    25  16  68 SW21      30.28S WCI  11
ENNIS          CLEAR     25  16  68 S21G26    30.37R WCI  10
THREE FORKS      N/A     36   1  22 SW23      30.22S WCI  24
$$

MTZ009-010-012-014-046-048-049-054-060300-
EAST SLOPES AND CENTRAL MONTANA

CITY           SKY/WX    TMP DP  RH WIND       PRES   REMARKS
CUT BANK       CLOUDY    41  22  46 SW36G46   29.95F
GREAT FALLS    CLOUDY    42  23  46 SW23      30.06S
MALMSTROM AFB  CLOUDY    43  24  47 SW26G32   30.07S
HELENA         CLOUDY    36  24  62 CALM      30.21R
CHOTEAU          N/A     46  19  34 SW18G29   30.01F
$$

MTZ011-013-016-021-045-047-050-051-060300-
NORTH CENTRAL MONTANA

CITY           SKY/WX    TMP DP  RH WIND       PRES   REMARKS
HAVRE          CLEAR     43  27  53 SW17      29.97F
LEWISTOWN      CLOUDY    36  23  59 SW13      30.06F WCI  27
N BAR RANCH      N/A     32  21  64 SW5       30.04F
CHINOOK          N/A     46  25  42 W17G25    29.95F
$$

MTZ017>020-022>027-061-062-060300-
NORTHEAST MONTANA

CITY           SKY/WX    TMP DP  RH WIND       PRES   REMARKS
GLASGOW        CLOUDY    36  25  64 SW7       29.97F WCI  30
JORDAN           N/A     38  27  64 W3        30.02F
SIDNEY         CLOUDY    30  23  74 S10       30.02F WCI  21
WOLF POINT     CLOUDY    32  25  75 SW7       29.99F WCI  26
PLENTYWOOD       N/A     34  25  69 SW7       29.97S WCI  28
POPLAR           N/A     34  27  75 SW6       30.00S WCI  29
SCOBEY           N/A     31  16  54 CALM      29.93
$$

MTZ028>42-056>058-060300-
SOUTHCENTRAL AND SOUTHEAST MONTANA

CITY           SKY/WX    TMP DP  RH WIND       PRES   REMARKS
BAKER          CLOUDY    35  20  54 SW13      30.07F WCI  26
BILLINGS       CLEAR     37  13  37 SW21      30.12F WCI  26
LIVINGSTON     CLOUDY    37  16  42 W35G45    30.20S WCI  24
MILES CITY     CLOUDY    37  23  56 SW14      30.06F WCI  28
EKALAKA          N/A     35  19  52 SW7       30.06  WCI  29
FORSYTH          N/A     39  21  48 SW5       30.08F
LAUREL           N/A     35  11  37 SW10      30.11  WCI  27
ROUNDUP          N/A     42  18  38 SW16      29.99S
$$

REGIONAL REPORTS...DAKOTAS

CITY           SKY/WX    TMP DP  RH WIND       PRES   REMARKS
WILLISTON      CLOUDY    33  25  72 CALM      30.00F
MINOT          CLOUDY    34  21  59 SW6       30.00F WCI  29
DICKINSON      CLOUDY    31  22  69 SW12      30.02F WCI  22
BEACH            N/A     28  25  86 SW7       30.07F WCI  21
CROSBY           N/A     25  25 100 S9        30.00R WCI  15
TIOGA            N/A     28  27  93 SW16      30.03S WCI  17
WATFORD CITY     N/A     27  25  93 SW6       30.02S WCI  20
BISMARCK       CLEAR     28  21  75 SE3       30.09F
GRAND FORKS    CLOUDY    18  14  84 SW6       30.11F WCI  10
FARGO          CLOUDY    22  18  85 SW3       30.13F
BUFFALO SD       N/A     29  20  69 W10       30.04F WCI  20
RAPID CITY     CLEAR     29  21  72 SW6       30.16F WCI  23
$$

REGIONAL REPORTS...WYOMING/IDAHO/WASHINGTON

CITY           SKY/WX    TMP DP  RH WIND       PRES   REMARKS
GILLETTE       CLOUDY    28  15  58 SW16      30.16F WCI  16
SHERIDAN       CLEAR     28  14  54 S5        30.14S
BUFFALO WY     CLOUDY    31  10  41 SW5       30.16S
CODY           CLOUDY    37  14  38 W18G30    30.19R WCI  27
YELLOWSTONE LA   N/A     18  13  80 VRB3      30.40R
IDAHO FALLS    CLOUDY    20  18  92 N5        30.51S FOG
SALMON         CLOUDY    16  12  86 SE5       30.41F
BOISE          MOCLDY    38  32  79 SE13      30.44R WCI  30
SPOKANE        CLOUDY    44  34  67 SE14G23   30.13F
$$

REGIONAL REPORTS...ALBERTA

CITY           SKY/WX    TMP DP  RH WIND       PRES   REMARKS
EDMONTON       PTCLDY    34  25  69 SW5       29.59F
CALGARY        MOCLDY    43  23  45 S3        29.76F
LETHBRIDGE     MOCLDY    45  25  45 SW13G20   29.91F
MEDICINE HAT   CLOUDY    43  30  61 SW22G30   29.82F
WATERTON GATE    N/A     41  19  42 SW25G39     N/A
CARDSTON         N/A     45  18  33 W13G18      N/A
MILK RIVER       N/A     43  25  49 NW7         N/A
$$

REGIONAL REPORTS...SASKATCHEWAN

CITY           SKY/WX    TMP DP  RH WIND       PRES   REMARKS
SWIFT CURRENT  CLEAR     36  28  75 SW18      29.81F WCI  25
REGINA         PTCLDY    25  19  80 S12       29.89F WCI  14
SASKATOON      CLOUDY    27  21  80 S10       29.79F WCI  17
CYPRESS HILLS    N/A     39  21  48 W15G23      N/A  WCI  31
VAL MARIE        N/A     28  25  86 SW8         N/A  WCI  20
ROCKGLEN         N/A     30  25  80 SW14        N/A  WCI  20
ASSINIBOIA       N/A     27  21  80 S8          N/A  WCI  18
$$



USA.gov is the U.S. government's official web portal to all federal, state and local government web resources and services.